Weather History for Marathon, FL

Change the Weather History Date:

Wednesday, October 17, 2012

  Actual Average Record
Temperature  
Mean Temperature 83 °F 81 °F  
Max Temperature 89 °F 85 °F 90 °F (2007)
Min Temperature 76 °F 76 °F 73 °F (2000)
Degree Days  
Heating Degree Days 0 0  
Month to date heating degree days 0 0  
Since 1 July heating degree days 0 0  
Cooling Degree Days 18 16  
Month to date cooling degree days 317 288  
Year to date cooling degree days 4560 4242  
Growing Degree Days 31 (Base 50)    
Moisture  
Dew Point 75 °F    
Average Humidity 80    
Maximum Humidity 94    
Minimum Humidity 65    
Precipitation  
Precipitation 0.06 in 0.12 in 3.37 in (2011)
Month to date precipitation 2.30 2.85  
Year to date precipitation 42.43 39.40  
Snow  
Snow 0.00 in - - ()
Month to date snowfall 0.0  
Since 1 July snowfall 0.0  
Since 1 September snowfall 0.0  
Snow Depth 0.00 in    
Sea Level Pressure  
Sea Level Pressure 29.84 in    
Wind  
Wind Speed 3 mph (ESE)    
Max Wind Speed 8 mph    
Max Gust Speed 15 mph    
Visibility 10 miles    
Events Rain    
T = Trace of Precipitation, MM = Missing Value Source: NWS Daily Summary

Daily Weather History Graph

Daily Weather History Graph

Search for Another Location

Airport:

Trip Planner

Search our weather history database for the weather conditions in past years. The results will help you decide how hot, cold, wet, or windy it might be!

Date:

Astronomy

Oct. 17, 2012 Rise Set
Actual Time 7:23 AM EDT 6:55 PM EDT
Civil Twilight 7:00 AM EDT 7:18 PM EDT
Nautical Twilight 6:33 AM EDT 7:44 PM EDT
Astronomical Twilight 6:07 AM EDT 8:11 PM EDT
Moon 9:37 AM EDT (10/17) 8:49 PM EDT (10/17)
Length of Visible Light 12h 17m
Length of Day
11h 31m
Waxing Crescent, 7% of the Moon is Illuminated
Oct 17
Waxing Crescent
Oct 21
First Quarter
Oct 29
Full
Nov 6
Last Quarter
Nov 13
New

Hourly Weather History & Observations

Time (EDT) Temp. Heat Index Dew Point Humidity Pressure Visibility Wind Dir Wind Speed Gust Speed Precip Events Conditions
12:53 AM 80.1 °F 84.5 °F 73.9 °F 81% 29.84 in 10.0 mi East 4.6 mph - N/A   Mostly Cloudy
1:53 AM 78.1 °F - 73.9 °F 87% 29.83 in 10.0 mi Calm Calm - N/A   Clear
2:53 AM 77.0 °F - 73.9 °F 90% 29.82 in 10.0 mi Calm Calm - N/A   Clear
3:53 AM 75.9 °F - 73.9 °F 94% 29.82 in 10.0 mi Calm Calm - N/A   Clear
4:53 AM 75.9 °F - 73.9 °F 94% 29.82 in 10.0 mi Calm Calm - N/A   Clear
5:53 AM 77.0 °F - 75.0 °F 94% 29.84 in 10.0 mi Calm Calm - N/A   Scattered Clouds
6:53 AM 78.1 °F - 73.0 °F 84% 29.85 in 10.0 mi Calm Calm - N/A   Partly Cloudy
7:53 AM 81.0 °F 85.8 °F 73.0 °F 77% 29.86 in 10.0 mi ESE 3.5 mph - N/A   Clear
8:53 AM 82.9 °F 89.4 °F 73.9 °F 74% 29.87 in 10.0 mi SE 3.5 mph - N/A   Clear
9:53 AM 82.9 °F 89.4 °F 73.9 °F 74% 29.88 in 10.0 mi ESE 4.6 mph - N/A   Clear
10:53 AM 86.0 °F 93.8 °F 73.9 °F 67% 29.88 in 10.0 mi SE 6.9 mph - N/A   Clear
11:53 AM 87.1 °F 96.3 °F 75.0 °F 67% 29.88 in 10.0 mi Variable 5.8 mph - N/A   Clear
12:53 PM 86.0 °F 95.1 °F 75.0 °F 70% 29.87 in 10.0 mi SSE 4.6 mph - N/A   Partly Cloudy
1:53 PM 84.9 °F 93.3 °F 75.0 °F 72% 29.85 in 10.0 mi SSE 5.8 mph - N/A   Partly Cloudy
2:53 PM 82.9 °F 90.2 °F 75.0 °F 77% 29.84 in 10.0 mi SSE 5.8 mph - N/A   Mostly Cloudy
3:53 PM 81.0 °F 89.2 °F 79.0 °F 94% 29.83 in 7.0 mi South 4.6 mph - 0.05 in Rain Light Rain
4:53 PM 81.0 °F 86.2 °F 73.9 °F 79% 29.82 in 10.0 mi Calm Calm - 0.01 in   Mostly Cloudy
5:53 PM 80.1 °F 85.4 °F 75.9 °F 87% 29.81 in 10.0 mi Calm Calm - N/A   Mostly Cloudy
6:53 PM 80.1 °F 85.4 °F 75.9 °F 87% 29.83 in 10.0 mi Calm Calm - N/A   Overcast
7:53 PM 81.0 °F 87.9 °F 77.0 °F 88% 29.82 in 10.0 mi NE 3.5 mph - N/A   Overcast
8:53 PM 81.0 °F 87.3 °F 75.9 °F 85% 29.83 in 10.0 mi NE 3.5 mph - N/A   Partly Cloudy
9:53 PM 81.0 °F 87.3 °F 75.9 °F 85% 29.85 in 10.0 mi ENE 4.6 mph - N/A   Mostly Cloudy
10:53 PM 81.0 °F 87.9 °F 77.0 °F 88% 29.86 in 10.0 mi East 3.5 mph - N/A   Clear
11:53 PM 81.0 °F 87.9 °F 77.0 °F 88% 29.87 in 10.0 mi Variable 4.6 mph - N/A   Mostly Cloudy